STARLINK-1591 (46045 NORAD) Tracking and Keplerian Element Data

This shows tracking and keplerian element data for the satellite.

Feedback or suggestion? Click here.




ElementValue
Catalog46045
NameSTARLINK-1591
Epoch Orbit1874
Epoch Day335.78901373
Epoch Year2020
RAAN127.8323
Inclination53.0024
Eccentricity0.000214
Argument of Perigee98.8715
Mean Anonmoly261.2515
Mean Motion15.05588583
Decay Rate8.72E-06
L11 46045U 20055U 20335.78901373 .00000872 00000-0 79007-4 0 9996
L22 46045 53.0024 127.8323 0002140 98.8715 261.2515 15.05588583 18746

Live tracking and technical data element details for STARLINK-1591 (NORAD 46045). STARLINK-1591 can be tracked NOW for your location showing map with azimuth and elevation plus other details from your city location.

Track the satellite on the map from your city or location and see movement details for azimuth, elevation, latitude, longitude, range, height, and movement on the map or in text.







IsCatalogInMostPopularTable: catalog: 46045, numindb: 24
Update: records affected: 1



GetName: 46045 STARLINK-1591

Hit Count: updated at: Wed, 02 Dec 2020 05:58:21 GMT